STARLINK-32787, 62809

Orbit data source: Space-Track

STARLINK-32787, 62809 is a payload satellite owned by SpaceX/Seattle (US) in LEO that was launched on Fri, 24 Jan 2025 UTC via an FALCON 9 launch vehicle from the Air Force Western Test Range (AFWTR). Payload-class satellites include a variety of spacecraft equipped with specific instruments for various scientific and technological missions. These include communications satellites like Starlink; space stations such as the ISS; scientific satellites like the Hubble; Earth observation satellites from companies like Planet Labs, Umbra, and HawkEye 360; GPS; miniature CubeSats for education and research; and military/defense satellites.

Loading next visibility...
Identifier
62809, 2025-018D
Orbit
LEO
Country
Flag of USUS
Related business
Manufacturer
SpaceX/Seattle
Mission
Operational Commercial Communications
Bus & Motor
STARLINK V2M, Unknown motor
Mass
730 kg wet, ~700 kg dry
Launch date (UTC)
2025-01-24 (11 months ago)
Launch vehicle
FALCON 9
Launch site
Air Force Western Test Range (AFWTR)
Object type
Payload
Rocket body
Debris
Shape & HBR
Box + 2 Pan, 17.7 m
Radar Cross Section
33.884 m², Large (>1 m²)

Expand to show TLE details & history
Last TLE update: 21 hours ago

TLE from 21 hours ago
0 STARLINK-32787
1 62809U 25018D   25350.24075485  .00020704  00000-0  70919-3 0  9993
2 62809  53.1611 337.0930 0001401  74.6371 285.4785 15.30201150 50397
Epoch: 2025-12-16T05:46Z
TLE epoch observation values (Epoch: 2025-12-16T05:46:41.219Z)
Latitude
0.00004°
Longitude
165.29348°
Altitude
475.855 km
Speed
7.629 km/s
True Right ascension
22h 28m 22s
True Declination
0° 00' 00"
Sunlit
Object was in daylight at epoch
Visualization orbit readout
Latitude
Unknown
Longitude
Unknown
Altitude
Unknown
Speed
Unknown
Apparent Right ascension
Unknown
Apparent Declination
Unknown
Sunlit
N/A
Visualization observer readout
Local Sidereal Time
01:13:39
Azimuth
Unknown
Elevation
Unknown
Doppler factor
Unknown
Orbital elements
Apogee altitude
476.428 km
Perigee altitude
474.508 km
Semi-major axis
6,853.605 km
Eccentricity
0.00014
Inclination
53.1611°
RAAN
337.093°
Arg. of periapsis
74.6371°
True anomaly
285.46303°
Mean anomaly
285.4785°
Eccentric anomaly
285.47076°
Mean motion
3.82529 °/min
Orbital period
94.11 mins
BSTAR
0.00070919
Loading maneuver chart data...
Computing Atmospheric mass density...
Loading historical data...
Loading historical data...
Loading historical data...
Loading historical data...
Loading historical data...
Loading historical data...
Loading historical data...

Documentation

Showing up to 5 results
|